This is the latest recevied weather packets stored in our database for station/object DJ4CK-1. If no packets are shown the sender has not sent any weather packets the latest 1 day(s).
| Time | Temp. | Humidity | Pressure | Rain* | Wind** | Luminosity | Snow |
|---|---|---|---|---|---|---|---|
| 1778013603 | 12.78° C | 85% | 1008 hPa | 0 mm | 0.89 m/s, 272° | - | - |
| 1778013543 | 12.78° C | 85% | 1008 hPa | 0 mm | 0.89 m/s, 272° | - | - |
| 1778013484 | 12.78° C | 86% | 1008 hPa | 0 mm | 0.89 m/s, 273° | - | - |
| 1778013423 | 12.78° C | 85% | 1008.1 hPa | 0 mm | 1.34 m/s, 275° | - | - |
| 1778013363 | 12.78° C | 85% | 1008.1 hPa | 0 mm | 1.79 m/s, 280° | - | - |
| 1778013303 | 12.78° C | 84% | 1008.1 hPa | 0 mm | 1.79 m/s, 282° | - | - |
| 1778013244 | 13.33° C | 84% | 1008.1 hPa | 0 mm | 2.24 m/s, 284° | - | - |
| 1778013183 | 13.33° C | 84% | 1008.1 hPa | 0 mm | 2.24 m/s, 287° | - | - |
| 1778013123 | 13.33° C | 84% | 1008.1 hPa | 0 mm | 2.24 m/s, 287° | - | - |
| 1778013063 | 13.33° C | 84% | 1008 hPa | 0 mm | 1.79 m/s, 289° | - | - |
| 1778013003 | 13.33° C | 83% | 1008 hPa | 0 mm | 1.79 m/s, 290° | - | - |
| 1778012943 | 13.33° C | 83% | 1008 hPa | 0 mm | 1.79 m/s, 291° | - | - |
| 1778012883 | 13.33° C | 83% | 1008 hPa | 0 mm | 1.79 m/s, 291° | - | - |
| 1778012824 | 13.33° C | 82% | 1008 hPa | 0 mm | 1.34 m/s, 292° | - | - |
| 1778012763 | 13.33° C | 83% | 1008 hPa | 0 mm | 1.79 m/s, 294° | - | - |
| 1778012703 | 13.33° C | 81% | 1007.9 hPa | 0 mm | 1.79 m/s, 296° | - | - |
| 1778012644 | 13.33° C | 80% | 1007.9 hPa | 0 mm | 1.79 m/s, 298° | - | - |
| 1778012583 | 13.33° C | 80% | 1007.9 hPa | 0 mm | 1.79 m/s, 298° | - | - |
| 1778012523 | 13.33° C | 80% | 1007.9 hPa | 0 mm | 1.34 m/s, 298° | - | - |
| 1778012463 | 13.33° C | 79% | 1007.9 hPa | 0 mm | 1.34 m/s, 297° | - | - |
| 1778012404 | 13.33° C | 78% | 1007.8 hPa | 0 mm | 1.34 m/s, 298° | - | - |
| 1778012343 | 13.33° C | 81% | 1007.8 hPa | 0 mm | 0.89 m/s, 299° | - | - |
| 1778012283 | 13.89° C | 79% | 1007.8 hPa | 0 mm | 1.34 m/s, 297° | - | - |
| 1778012223 | 13.89° C | 78% | 1007.8 hPa | 0 mm | 0.89 m/s, 294° | - | - |
| 1778012163 | 13.89° C | 80% | 1007.8 hPa | 0 mm | 0.89 m/s, 290° | - | - |
* Rain latest hour (hover to see other rain measurements)
** Current wind speed in m/s (hover to see current wind gust speed)